Time,TemperatureF,DewpointF,PressureIn,WindDirection,WindDirectionDegrees,WindSpeedMPH,WindSpeedGustMPH,Humidity,HourlyPrecipIn,Conditions,Clouds,dailyrainin,SoftwareType,DateUTC
2013-08-09 00:22:00,83.0,-99.9,-100.00,West,280,0.0,6.0,-999,-99.99,,,-99.99,,2013-08-09 07:22:00,
2013-08-09 00:33:00,83.0,-99.9,-100.00,West,280,0.0,6.0,-999,-99.99,,,-99.99,,2013-08-09 07:33:00,
2013-08-09 01:12:00,80.0,-99.9,-100.00,SSE,162,3.0,10.0,-999,-99.99,,,-99.99,,2013-08-09 08:12:00,
2013-08-09 01:53:00,80.0,-99.9,-100.00,East,81,1.0,3.0,-999,-99.99,,,-99.99,,2013-08-09 08:53:00,
2013-08-09 02:40:00,78.0,-99.9,-100.00,SSW,193,5.0,8.0,-999,-99.99,,,-99.99,,2013-08-09 09:40:00,
2013-08-09 02:52:00,77.0,-99.9,-100.00,NE,34,4.0,8.0,-999,-99.99,,,-99.99,,2013-08-09 09:52:00,
2013-08-09 03:01:00,77.0,-99.9,-100.00,NE,34,4.0,8.0,-999,-99.99,,,-99.99,,2013-08-09 10:01:00,
2013-08-09 03:22:00,78.0,-99.9,-100.00,SSW,193,5.0,8.0,-999,-99.99,,,-99.99,,2013-08-09 10:22:00,
2013-08-09 03:32:00,78.0,-99.9,-100.00,SSW,193,5.0,8.0,-999,-99.99,,,-99.99,,2013-08-09 10:32:00,
2013-08-09 03:53:00,77.0,-99.9,-100.00,SSE,167,4.0,9.0,-999,-99.99,,,-99.99,,2013-08-09 10:53:00,
2013-08-09 04:02:00,77.0,-99.9,-100.00,SSE,167,4.0,9.0,-999,-99.99,,,-99.99,,2013-08-09 11:02:00,
2013-08-09 06:00:00,75.0,-99.9,-100.00,South,190,3.0,5.0,-999,-99.99,,,-99.99,,2013-08-09 13:00:00,
2013-08-09 06:23:00,74.0,-99.9,-100.00,East,99,3.0,8.0,-999,-99.99,,,-99.99,,2013-08-09 13:23:00,
2013-08-09 06:32:00,74.0,-99.9,-100.00,East,99,3.0,8.0,-999,-99.99,,,-99.99,,2013-08-09 13:32:00,
2013-08-09 06:43:00,75.0,-99.9,-100.00,East,100,2.0,9.0,-999,-99.99,,,-99.99,,2013-08-09 13:43:00,
2013-08-09 06:53:00,75.0,-99.9,-100.00,South,190,3.0,5.0,-999,-99.99,,,-99.99,,2013-08-09 13:53:00,
2013-08-09 08:53:00,83.0,-99.9,-100.00,NNW,348,3.0,7.0,-999,-99.99,,,-99.99,,2013-08-09 15:53:00,
2013-08-09 09:02:00,83.0,-99.9,-100.00,NNW,348,3.0,7.0,-999,-99.99,,,-99.99,,2013-08-09 16:02:00,
2013-08-09 09:10:00,86.0,-99.9,-100.00,North,355,13.0,13.0,-999,-99.99,,,-99.99,,2013-08-09 16:10:00,
2013-08-09 09:11:00,83.0,-99.9,-100.00,NNW,348,3.0,7.0,-999,-99.99,,,-99.99,,2013-08-09 16:11:00,
2013-08-09 09:53:00,86.0,-99.9,-100.00,North,355,13.0,13.0,-999,-99.99,,,-99.99,,2013-08-09 16:53:00,
2013-08-09 10:02:00,86.0,-99.9,-100.00,North,355,13.0,13.0,-999,-99.99,,,-99.99,,2013-08-09 17:02:00,
2013-08-09 10:43:00,88.0,-99.9,-100.00,North,356,9.0,14.0,-999,-99.99,,,-99.99,,2013-08-09 17:43:00,
2013-08-09 11:43:00,92.0,-99.9,-100.00,NNE,19,4.0,13.0,-999,-99.99,,,-99.99,,2013-08-09 18:43:00,
2013-08-09 11:50:00,95.0,-99.9,-100.00,North,354,7.0,11.0,-999,-99.99,,,-99.99,,2013-08-09 18:50:00,
2013-08-09 11:53:00,92.0,-99.9,-100.00,NNE,19,4.0,13.0,-999,-99.99,,,-99.99,,2013-08-09 18:53:00,
2013-08-09 12:22:00,94.0,-99.9,-100.00,North,6,5.0,10.0,-999,-99.99,,,-99.99,,2013-08-09 19:22:00,
2013-08-09 12:32:00,94.0,-99.9,-100.00,North,6,5.0,10.0,-999,-99.99,,,-99.99,,2013-08-09 19:32:00,
2013-08-09 12:43:00,95.0,-99.9,-100.00,North,354,7.0,11.0,-999,-99.99,,,-99.99,,2013-08-09 19:43:00,
2013-08-09 13:11:00,96.0,-99.9,-100.00,NNW,343,9.0,9.0,-999,-99.99,,,-99.99,,2013-08-09 20:11:00,
2013-08-09 13:22:00,97.0,-99.9,-100.00,NNW,340,9.0,13.0,-999,-99.99,,,-99.99,,2013-08-09 20:22:00,
2013-08-09 13:32:00,97.0,-99.9,-100.00,NNW,340,9.0,13.0,-999,-99.99,,,-99.99,,2013-08-09 20:32:00,
2013-08-09 13:43:00,97.0,-99.9,-100.00,NNW,340,9.0,13.0,-999,-99.99,,,-99.99,,2013-08-09 20:43:00,
2013-08-09 14:53:00,98.0,-99.9,-100.00,WSW,250,3.0,12.0,-999,-99.99,,,-99.99,,2013-08-09 21:53:00,
2013-08-09 15:02:00,98.0,-99.9,-100.00,WSW,250,3.0,12.0,-999,-99.99,,,-99.99,,2013-08-09 22:02:00,
2013-08-09 15:10:00,99.0,-99.9,-100.00,SW,234,10.0,10.0,-999,-99.99,,,-99.99,,2013-08-09 22:10:00,
2013-08-09 15:22:00,99.0,-99.9,-100.00,WNW,288,7.0,13.0,-999,-99.99,,,-99.99,,2013-08-09 22:22:00,
2013-08-09 15:32:00,99.0,-99.9,-100.00,SW,233,7.0,11.0,-999,-99.99,,,-99.99,,2013-08-09 22:32:00,
2013-08-09 15:43:00,99.0,-99.9,-100.00,SW,233,7.0,11.0,-999,-99.99,,,-99.99,,2013-08-09 22:43:00,
2013-08-09 15:52:00,99.0,-99.9,-100.00,SW,234,10.0,10.0,-999,-99.99,,,-99.99,,2013-08-09 22:52:00,
2013-08-09 16:02:00,99.0,-99.9,-100.00,SW,234,10.0,10.0,-999,-99.99,,,-99.99,,2013-08-09 23:02:00,
2013-08-09 16:40:00,98.0,-99.9,-100.00,WSW,244,10.0,10.0,-999,-99.99,,,-99.99,,2013-08-09 23:40:00,
2013-08-09 16:43:00,99.0,-99.9,-100.00,NW,316,2.0,8.0,-999,-99.99,,,-99.99,,2013-08-09 23:43:00,
2013-08-09 17:10:00,99.0,-99.9,-100.00,SSW,196,4.0,9.0,-999,-99.99,,,-99.99,,2013-08-10 00:10:00,
2013-08-09 17:22:00,98.0,-99.9,-100.00,WSW,244,10.0,10.0,-999,-99.99,,,-99.99,,2013-08-10 00:22:00,
2013-08-09 17:33:00,98.0,-99.9,-100.00,WSW,244,10.0,10.0,-999,-99.99,,,-99.99,,2013-08-10 00:33:00,
2013-08-09 17:53:00,99.0,-99.9,-100.00,SSW,196,4.0,9.0,-999,-99.99,,,-99.99,,2013-08-10 00:53:00,
2013-08-09 18:02:00,99.0,-99.9,-100.00,SSW,196,4.0,9.0,-999,-99.99,,,-99.99,,2013-08-10 01:02:00,
2013-08-09 18:40:00,98.0,-99.9,-100.00,WNW,295,6.0,7.0,-999,-99.99,,,-99.99,,2013-08-10 01:40:00,
2013-08-09 19:03:00,99.0,-99.9,-100.00,South,189,0.0,3.0,-999,-99.99,,,-99.99,,2013-08-10 02:03:00,
2013-08-09 19:10:00,98.0,-99.9,-100.00,NW,308,7.0,8.0,-999,-99.99,,,-99.99,,2013-08-10 02:10:00,
2013-08-09 19:11:00,99.0,-99.9,-100.00,South,189,0.0,3.0,-999,-99.99,,,-99.99,,2013-08-10 02:11:00,
2013-08-09 19:21:00,98.0,-99.9,-100.00,WNW,295,6.0,7.0,-999,-99.99,,,-99.99,,2013-08-10 02:21:00,
2013-08-09 19:32:00,98.0,-99.9,-100.00,WNW,295,6.0,7.0,-999,-99.99,,,-99.99,,2013-08-10 02:32:00,
2013-08-09 19:52:00,98.0,-99.9,-100.00,NW,308,7.0,8.0,-999,-99.99,,,-99.99,,2013-08-10 02:52:00,
2013-08-09 20:01:00,98.0,-99.9,-100.00,NW,308,7.0,8.0,-999,-99.99,,,-99.99,,2013-08-10 03:01:00,
2013-08-09 20:20:00,92.0,-99.9,-100.00,NNW,331,11.0,18.0,-999,-99.99,,,-99.99,,2013-08-10 03:20:00,
2013-08-09 20:22:00,96.0,-99.9,-100.00,NW,322,4.0,5.0,-999,-99.99,,,-99.99,,2013-08-10 03:22:00,
2013-08-09 20:32:00,96.0,-99.9,-100.00,NW,322,4.0,5.0,-999,-99.99,,,-99.99,,2013-08-10 03:32:00,
2013-08-09 20:50:00,89.0,-99.9,-100.00,North,0,9.0,14.0,-999,-99.99,,,-99.99,,2013-08-10 03:50:00,
2013-08-09 21:02:00,92.0,-99.9,-100.00,NNW,331,11.0,18.0,-999,-99.99,,,-99.99,,2013-08-10 04:02:00,
2013-08-09 21:12:00,92.0,-99.9,-100.00,NNW,331,11.0,18.0,-999,-99.99,,,-99.99,,2013-08-10 04:12:00,
2013-08-09 21:32:00,89.0,-99.9,-100.00,North,0,9.0,14.0,-999,-99.99,,,-99.99,,2013-08-10 04:32:00,
2013-08-09 21:40:00,87.0,-99.9,-100.00,North,2,10.0,10.0,-999,-99.99,,,-99.99,,2013-08-10 04:40:00,
2013-08-09 21:43:00,89.0,-99.9,-100.00,North,0,9.0,14.0,-999,-99.99,,,-99.99,,2013-08-10 04:43:00,
2013-08-09 23:20:00,83.0,-99.9,-100.00,North,6,6.0,7.0,-999,-99.99,,,-99.99,,2013-08-10 06:20:00,